<?xml version="1.0"?>
<gpx xmlns="http://www.topografix.com/GPX/1/1" xmlns:xsi="http://www.w3.org/2001/XMLSchema-instance" version="1.1" creator="GPX RubyGem 1.0.0 -- http://dougfales.github.io/gpx/" xsi:schemaLocation="http://www.topografix.com/GPX/1/1 http://www.topografix.com/GPX/1/1/gpx.xsd">
  <metadata>
    <name/>
    <time>2026-05-10T06:26:26+00:00</time>
    <bound minlat="90.0" minlon="180.0" maxlat="-90.0" maxlon="-180.0"/>
  </metadata>
  <trk>
    <name/>
    <trkseg>
      <trkpt lat="49.268156" lon="12.614301">
        <time>1970-01-01T00:00:00+00:00</time>
        <ele>440.0</ele>
      </trkpt>
      <trkpt lat="49.268269" lon="12.614289">
        <time>1970-01-01T00:00:00+00:00</time>
        <ele>441.0</ele>
      </trkpt>
      <trkpt lat="49.268528" lon="12.614255">
        <time>1970-01-01T00:00:00+00:00</time>
        <ele>442.0</ele>
      </trkpt>
      <trkpt lat="49.268814" lon="12.614174">
        <time>1970-01-01T00:00:00+00:00</time>
        <ele>443.0</ele>
      </trkpt>
      <trkpt lat="49.269155" lon="12.614022">
        <time>1970-01-01T00:00:00+00:00</time>
        <ele>446.0</ele>
      </trkpt>
      <trkpt lat="49.269428" lon="12.6138">
        <time>1970-01-01T00:00:00+00:00</time>
        <ele>449.0</ele>
      </trkpt>
      <trkpt lat="49.2696" lon="12.613622">
        <time>1970-01-01T00:00:00+00:00</time>
        <ele>451.0</ele>
      </trkpt>
      <trkpt lat="49.269742" lon="12.613411">
        <time>1970-01-01T00:00:00+00:00</time>
        <ele>454.0</ele>
      </trkpt>
      <trkpt lat="49.269839" lon="12.613301">
        <time>1970-01-01T00:00:00+00:00</time>
        <ele>456.0</ele>
      </trkpt>
      <trkpt lat="49.269972" lon="12.613193">
        <time>1970-01-01T00:00:00+00:00</time>
        <ele>460.0</ele>
      </trkpt>
      <trkpt lat="49.270338" lon="12.612997">
        <time>1970-01-01T00:00:00+00:00</time>
        <ele>467.0</ele>
      </trkpt>
      <trkpt lat="49.270443" lon="12.612961">
        <time>1970-01-01T00:00:00+00:00</time>
        <ele>469.0</ele>
      </trkpt>
      <trkpt lat="49.270785" lon="12.612896">
        <time>1970-01-01T00:00:00+00:00</time>
        <ele>474.0</ele>
      </trkpt>
      <trkpt lat="49.271484" lon="12.612824">
        <time>1970-01-01T00:00:00+00:00</time>
        <ele>468.0</ele>
      </trkpt>
      <trkpt lat="49.272915" lon="12.612582">
        <time>1970-01-01T00:00:00+00:00</time>
        <ele>453.0</ele>
      </trkpt>
      <trkpt lat="49.273093" lon="12.612449">
        <time>1970-01-01T00:00:00+00:00</time>
        <ele>452.0</ele>
      </trkpt>
      <trkpt lat="49.273417" lon="12.612314">
        <time>1970-01-01T00:00:00+00:00</time>
        <ele>452.0</ele>
      </trkpt>
      <trkpt lat="49.273981" lon="12.61197">
        <time>1970-01-01T00:00:00+00:00</time>
        <ele>440.0</ele>
      </trkpt>
      <trkpt lat="49.274996" lon="12.611193">
        <time>1970-01-01T00:00:00+00:00</time>
        <ele>419.0</ele>
      </trkpt>
      <trkpt lat="49.275219" lon="12.611052">
        <time>1970-01-01T00:00:00+00:00</time>
        <ele>418.0</ele>
      </trkpt>
      <trkpt lat="49.275282" lon="12.610897">
        <time>1970-01-01T00:00:00+00:00</time>
        <ele>418.0</ele>
      </trkpt>
      <trkpt lat="49.275055" lon="12.61046">
        <time>1970-01-01T00:00:00+00:00</time>
        <ele>420.0</ele>
      </trkpt>
      <trkpt lat="49.274779" lon="12.610189">
        <time>1970-01-01T00:00:00+00:00</time>
        <ele>421.0</ele>
      </trkpt>
      <trkpt lat="49.275201" lon="12.609922">
        <time>1970-01-01T00:00:00+00:00</time>
        <ele>424.0</ele>
      </trkpt>
      <trkpt lat="49.275418" lon="12.609736">
        <time>1970-01-01T00:00:00+00:00</time>
        <ele>425.0</ele>
      </trkpt>
      <trkpt lat="49.275861" lon="12.609302">
        <time>1970-01-01T00:00:00+00:00</time>
        <ele>424.0</ele>
      </trkpt>
      <trkpt lat="49.276073" lon="12.609011">
        <time>1970-01-01T00:00:00+00:00</time>
        <ele>420.0</ele>
      </trkpt>
      <trkpt lat="49.276334" lon="12.608542">
        <time>1970-01-01T00:00:00+00:00</time>
        <ele>411.0</ele>
      </trkpt>
      <trkpt lat="49.276373" lon="12.608321">
        <time>1970-01-01T00:00:00+00:00</time>
        <ele>408.0</ele>
      </trkpt>
      <trkpt lat="49.276414" lon="12.6079">
        <time>1970-01-01T00:00:00+00:00</time>
        <ele>405.0</ele>
      </trkpt>
      <trkpt lat="49.276622" lon="12.607466">
        <time>1970-01-01T00:00:00+00:00</time>
        <ele>401.0</ele>
      </trkpt>
      <trkpt lat="49.276676" lon="12.60724">
        <time>1970-01-01T00:00:00+00:00</time>
        <ele>397.0</ele>
      </trkpt>
      <trkpt lat="49.276667" lon="12.607048">
        <time>1970-01-01T00:00:00+00:00</time>
        <ele>395.0</ele>
      </trkpt>
      <trkpt lat="49.276614" lon="12.606836">
        <time>1970-01-01T00:00:00+00:00</time>
        <ele>394.0</ele>
      </trkpt>
      <trkpt lat="49.276456" lon="12.606405">
        <time>1970-01-01T00:00:00+00:00</time>
        <ele>394.0</ele>
      </trkpt>
      <trkpt lat="49.276399" lon="12.606296">
        <time>1970-01-01T00:00:00+00:00</time>
        <ele>394.0</ele>
      </trkpt>
      <trkpt lat="49.275953" lon="12.60657">
        <time>1970-01-01T00:00:00+00:00</time>
        <ele>398.0</ele>
      </trkpt>
      <trkpt lat="49.275815" lon="12.605892">
        <time>1970-01-01T00:00:00+00:00</time>
        <ele>398.0</ele>
      </trkpt>
      <trkpt lat="49.275668" lon="12.605134">
        <time>1970-01-01T00:00:00+00:00</time>
        <ele>394.0</ele>
      </trkpt>
      <trkpt lat="49.275653" lon="12.604918">
        <time>1970-01-01T00:00:00+00:00</time>
        <ele>392.0</ele>
      </trkpt>
      <trkpt lat="49.275663" lon="12.604707">
        <time>1970-01-01T00:00:00+00:00</time>
        <ele>392.0</ele>
      </trkpt>
      <trkpt lat="49.275702" lon="12.60443">
        <time>1970-01-01T00:00:00+00:00</time>
        <ele>392.0</ele>
      </trkpt>
      <trkpt lat="49.275745" lon="12.604276">
        <time>1970-01-01T00:00:00+00:00</time>
        <ele>391.0</ele>
      </trkpt>
      <trkpt lat="49.275806" lon="12.604111">
        <time>1970-01-01T00:00:00+00:00</time>
        <ele>392.0</ele>
      </trkpt>
      <trkpt lat="49.275905" lon="12.603932">
        <time>1970-01-01T00:00:00+00:00</time>
        <ele>391.0</ele>
      </trkpt>
      <trkpt lat="49.276009" lon="12.603789">
        <time>1970-01-01T00:00:00+00:00</time>
        <ele>392.0</ele>
      </trkpt>
      <trkpt lat="49.276242" lon="12.603624">
        <time>1970-01-01T00:00:00+00:00</time>
        <ele>393.0</ele>
      </trkpt>
      <trkpt lat="49.27652" lon="12.603546">
        <time>1970-01-01T00:00:00+00:00</time>
        <ele>394.0</ele>
      </trkpt>
      <trkpt lat="49.277002" lon="12.603428">
        <time>1970-01-01T00:00:00+00:00</time>
        <ele>394.0</ele>
      </trkpt>
      <trkpt lat="49.277066" lon="12.603406">
        <time>1970-01-01T00:00:00+00:00</time>
        <ele>395.0</ele>
      </trkpt>
      <trkpt lat="49.277153" lon="12.603336">
        <time>1970-01-01T00:00:00+00:00</time>
        <ele>395.0</ele>
      </trkpt>
      <trkpt lat="49.277623" lon="12.602655">
        <time>1970-01-01T00:00:00+00:00</time>
        <ele>396.0</ele>
      </trkpt>
      <trkpt lat="49.27769" lon="12.602535">
        <time>1970-01-01T00:00:00+00:00</time>
        <ele>395.0</ele>
      </trkpt>
      <trkpt lat="49.277758" lon="12.602348">
        <time>1970-01-01T00:00:00+00:00</time>
        <ele>395.0</ele>
      </trkpt>
      <trkpt lat="49.277797" lon="12.602149">
        <time>1970-01-01T00:00:00+00:00</time>
        <ele>395.0</ele>
      </trkpt>
      <trkpt lat="49.277927" lon="12.602183">
        <time>1970-01-01T00:00:00+00:00</time>
        <ele>396.0</ele>
      </trkpt>
      <trkpt lat="49.277989" lon="12.60217">
        <time>1970-01-01T00:00:00+00:00</time>
        <ele>397.0</ele>
      </trkpt>
      <trkpt lat="49.278478" lon="12.601771">
        <time>1970-01-01T00:00:00+00:00</time>
        <ele>401.0</ele>
      </trkpt>
      <trkpt lat="49.279421" lon="12.601297">
        <time>1970-01-01T00:00:00+00:00</time>
        <ele>404.0</ele>
      </trkpt>
      <trkpt lat="49.279713" lon="12.601232">
        <time>1970-01-01T00:00:00+00:00</time>
        <ele>406.0</ele>
      </trkpt>
      <trkpt lat="49.280192" lon="12.600898">
        <time>1970-01-01T00:00:00+00:00</time>
        <ele>410.0</ele>
      </trkpt>
      <trkpt lat="49.280723" lon="12.600275">
        <time>1970-01-01T00:00:00+00:00</time>
        <ele>418.0</ele>
      </trkpt>
      <trkpt lat="49.280806" lon="12.600233">
        <time>1970-01-01T00:00:00+00:00</time>
        <ele>420.0</ele>
      </trkpt>
      <trkpt lat="49.281312" lon="12.600155">
        <time>1970-01-01T00:00:00+00:00</time>
        <ele>427.0</ele>
      </trkpt>
      <trkpt lat="49.282079" lon="12.600233">
        <time>1970-01-01T00:00:00+00:00</time>
        <ele>437.0</ele>
      </trkpt>
      <trkpt lat="49.283735" lon="12.60051">
        <time>1970-01-01T00:00:00+00:00</time>
        <ele>434.0</ele>
      </trkpt>
      <trkpt lat="49.284073" lon="12.600589">
        <time>1970-01-01T00:00:00+00:00</time>
        <ele>434.0</ele>
      </trkpt>
      <trkpt lat="49.285212" lon="12.601027">
        <time>1970-01-01T00:00:00+00:00</time>
        <ele>433.0</ele>
      </trkpt>
      <trkpt lat="49.285667" lon="12.601562">
        <time>1970-01-01T00:00:00+00:00</time>
        <ele>435.0</ele>
      </trkpt>
      <trkpt lat="49.286105" lon="12.601726">
        <time>1970-01-01T00:00:00+00:00</time>
        <ele>437.0</ele>
      </trkpt>
      <trkpt lat="49.286376" lon="12.601571">
        <time>1970-01-01T00:00:00+00:00</time>
        <ele>438.0</ele>
      </trkpt>
      <trkpt lat="49.286473" lon="12.6014">
        <time>1970-01-01T00:00:00+00:00</time>
        <ele>438.0</ele>
      </trkpt>
      <trkpt lat="49.28646" lon="12.600977">
        <time>1970-01-01T00:00:00+00:00</time>
        <ele>438.0</ele>
      </trkpt>
      <trkpt lat="49.286635" lon="12.600549">
        <time>1970-01-01T00:00:00+00:00</time>
        <ele>440.0</ele>
      </trkpt>
      <trkpt lat="49.286978" lon="12.6">
        <time>1970-01-01T00:00:00+00:00</time>
        <ele>445.0</ele>
      </trkpt>
      <trkpt lat="49.287275" lon="12.599588">
        <time>1970-01-01T00:00:00+00:00</time>
        <ele>448.0</ele>
      </trkpt>
      <trkpt lat="49.28776" lon="12.599048">
        <time>1970-01-01T00:00:00+00:00</time>
        <ele>448.0</ele>
      </trkpt>
      <trkpt lat="49.288144" lon="12.598736">
        <time>1970-01-01T00:00:00+00:00</time>
        <ele>444.0</ele>
      </trkpt>
      <trkpt lat="49.28841" lon="12.598593">
        <time>1970-01-01T00:00:00+00:00</time>
        <ele>443.0</ele>
      </trkpt>
      <trkpt lat="49.288882" lon="12.598397">
        <time>1970-01-01T00:00:00+00:00</time>
        <ele>444.0</ele>
      </trkpt>
      <trkpt lat="49.291185" lon="12.597787">
        <time>1970-01-01T00:00:00+00:00</time>
        <ele>445.0</ele>
      </trkpt>
      <trkpt lat="49.291689" lon="12.597618">
        <time>1970-01-01T00:00:00+00:00</time>
        <ele>439.0</ele>
      </trkpt>
      <trkpt lat="49.292051" lon="12.597367">
        <time>1970-01-01T00:00:00+00:00</time>
        <ele>442.0</ele>
      </trkpt>
      <trkpt lat="49.292176" lon="12.59717">
        <time>1970-01-01T00:00:00+00:00</time>
        <ele>447.0</ele>
      </trkpt>
      <trkpt lat="49.29247" lon="12.596387">
        <time>1970-01-01T00:00:00+00:00</time>
        <ele>454.0</ele>
      </trkpt>
      <trkpt lat="49.292996" lon="12.595893">
        <time>1970-01-01T00:00:00+00:00</time>
        <ele>446.0</ele>
      </trkpt>
      <trkpt lat="49.293316" lon="12.595441">
        <time>1970-01-01T00:00:00+00:00</time>
        <ele>427.0</ele>
      </trkpt>
      <trkpt lat="49.293581" lon="12.594875">
        <time>1970-01-01T00:00:00+00:00</time>
        <ele>423.0</ele>
      </trkpt>
      <trkpt lat="49.294102" lon="12.593182">
        <time>1970-01-01T00:00:00+00:00</time>
        <ele>425.0</ele>
      </trkpt>
      <trkpt lat="49.294146" lon="12.593237">
        <time>1970-01-01T00:00:00+00:00</time>
        <ele>426.0</ele>
      </trkpt>
      <trkpt lat="49.294501" lon="12.593886">
        <time>1970-01-01T00:00:00+00:00</time>
        <ele>428.0</ele>
      </trkpt>
      <trkpt lat="49.294598" lon="12.594009">
        <time>1970-01-01T00:00:00+00:00</time>
        <ele>429.0</ele>
      </trkpt>
      <trkpt lat="49.294739" lon="12.594112">
        <time>1970-01-01T00:00:00+00:00</time>
        <ele>430.0</ele>
      </trkpt>
      <trkpt lat="49.294802" lon="12.594144">
        <time>1970-01-01T00:00:00+00:00</time>
        <ele>431.0</ele>
      </trkpt>
      <trkpt lat="49.294969" lon="12.594289">
        <time>1970-01-01T00:00:00+00:00</time>
        <ele>432.0</ele>
      </trkpt>
      <trkpt lat="49.295243" lon="12.594636">
        <time>1970-01-01T00:00:00+00:00</time>
        <ele>434.0</ele>
      </trkpt>
      <trkpt lat="49.295328" lon="12.594796">
        <time>1970-01-01T00:00:00+00:00</time>
        <ele>435.0</ele>
      </trkpt>
      <trkpt lat="49.295371" lon="12.594926">
        <time>1970-01-01T00:00:00+00:00</time>
        <ele>437.0</ele>
      </trkpt>
      <trkpt lat="49.295424" lon="12.595221">
        <time>1970-01-01T00:00:00+00:00</time>
        <ele>442.0</ele>
      </trkpt>
      <trkpt lat="49.295424" lon="12.595221">
        <time>1970-01-01T00:00:00+00:00</time>
        <ele>442.0</ele>
      </trkpt>
      <trkpt lat="49.295371" lon="12.594926">
        <time>1970-01-01T00:00:00+00:00</time>
        <ele>437.0</ele>
      </trkpt>
      <trkpt lat="49.295328" lon="12.594796">
        <time>1970-01-01T00:00:00+00:00</time>
        <ele>435.0</ele>
      </trkpt>
      <trkpt lat="49.295243" lon="12.594636">
        <time>1970-01-01T00:00:00+00:00</time>
        <ele>434.0</ele>
      </trkpt>
      <trkpt lat="49.294969" lon="12.594289">
        <time>1970-01-01T00:00:00+00:00</time>
        <ele>432.0</ele>
      </trkpt>
      <trkpt lat="49.294802" lon="12.594144">
        <time>1970-01-01T00:00:00+00:00</time>
        <ele>431.0</ele>
      </trkpt>
      <trkpt lat="49.294739" lon="12.594112">
        <time>1970-01-01T00:00:00+00:00</time>
        <ele>430.0</ele>
      </trkpt>
      <trkpt lat="49.294598" lon="12.594009">
        <time>1970-01-01T00:00:00+00:00</time>
        <ele>429.0</ele>
      </trkpt>
      <trkpt lat="49.294501" lon="12.593886">
        <time>1970-01-01T00:00:00+00:00</time>
        <ele>428.0</ele>
      </trkpt>
      <trkpt lat="49.294146" lon="12.593237">
        <time>1970-01-01T00:00:00+00:00</time>
        <ele>426.0</ele>
      </trkpt>
      <trkpt lat="49.294102" lon="12.593182">
        <time>1970-01-01T00:00:00+00:00</time>
        <ele>425.0</ele>
      </trkpt>
      <trkpt lat="49.294111" lon="12.593023">
        <time>1970-01-01T00:00:00+00:00</time>
        <ele>426.0</ele>
      </trkpt>
      <trkpt lat="49.293877" lon="12.592774">
        <time>1970-01-01T00:00:00+00:00</time>
        <ele>428.0</ele>
      </trkpt>
      <trkpt lat="49.293705" lon="12.592492">
        <time>1970-01-01T00:00:00+00:00</time>
        <ele>430.0</ele>
      </trkpt>
      <trkpt lat="49.293447" lon="12.591983">
        <time>1970-01-01T00:00:00+00:00</time>
        <ele>430.0</ele>
      </trkpt>
      <trkpt lat="49.293323" lon="12.591708">
        <time>1970-01-01T00:00:00+00:00</time>
        <ele>431.0</ele>
      </trkpt>
      <trkpt lat="49.292835" lon="12.590193">
        <time>1970-01-01T00:00:00+00:00</time>
        <ele>435.0</ele>
      </trkpt>
      <trkpt lat="49.292708" lon="12.589926">
        <time>1970-01-01T00:00:00+00:00</time>
        <ele>436.0</ele>
      </trkpt>
      <trkpt lat="49.292564" lon="12.589743">
        <time>1970-01-01T00:00:00+00:00</time>
        <ele>436.0</ele>
      </trkpt>
      <trkpt lat="49.292367" lon="12.589565">
        <time>1970-01-01T00:00:00+00:00</time>
        <ele>436.0</ele>
      </trkpt>
      <trkpt lat="49.290386" lon="12.588537">
        <time>1970-01-01T00:00:00+00:00</time>
        <ele>438.0</ele>
      </trkpt>
      <trkpt lat="49.289532" lon="12.587945">
        <time>1970-01-01T00:00:00+00:00</time>
        <ele>437.0</ele>
      </trkpt>
      <trkpt lat="49.289004" lon="12.587548">
        <time>1970-01-01T00:00:00+00:00</time>
        <ele>440.0</ele>
      </trkpt>
      <trkpt lat="49.2887" lon="12.587391">
        <time>1970-01-01T00:00:00+00:00</time>
        <ele>438.0</ele>
      </trkpt>
      <trkpt lat="49.288439" lon="12.587356">
        <time>1970-01-01T00:00:00+00:00</time>
        <ele>436.0</ele>
      </trkpt>
      <trkpt lat="49.287846" lon="12.587289">
        <time>1970-01-01T00:00:00+00:00</time>
        <ele>435.0</ele>
      </trkpt>
      <trkpt lat="49.287441" lon="12.587212">
        <time>1970-01-01T00:00:00+00:00</time>
        <ele>434.0</ele>
      </trkpt>
      <trkpt lat="49.287208" lon="12.587121">
        <time>1970-01-01T00:00:00+00:00</time>
        <ele>433.0</ele>
      </trkpt>
      <trkpt lat="49.286811" lon="12.586926">
        <time>1970-01-01T00:00:00+00:00</time>
        <ele>434.0</ele>
      </trkpt>
      <trkpt lat="49.28659" lon="12.586828">
        <time>1970-01-01T00:00:00+00:00</time>
        <ele>434.0</ele>
      </trkpt>
      <trkpt lat="49.285456" lon="12.586155">
        <time>1970-01-01T00:00:00+00:00</time>
        <ele>430.0</ele>
      </trkpt>
      <trkpt lat="49.284894" lon="12.585657">
        <time>1970-01-01T00:00:00+00:00</time>
        <ele>429.0</ele>
      </trkpt>
      <trkpt lat="49.284709" lon="12.585504">
        <time>1970-01-01T00:00:00+00:00</time>
        <ele>428.0</ele>
      </trkpt>
      <trkpt lat="49.284374" lon="12.585162">
        <time>1970-01-01T00:00:00+00:00</time>
        <ele>427.0</ele>
      </trkpt>
      <trkpt lat="49.283784" lon="12.58439">
        <time>1970-01-01T00:00:00+00:00</time>
        <ele>424.0</ele>
      </trkpt>
      <trkpt lat="49.283568" lon="12.585313">
        <time>1970-01-01T00:00:00+00:00</time>
        <ele>425.0</ele>
      </trkpt>
      <trkpt lat="49.283341" lon="12.586116">
        <time>1970-01-01T00:00:00+00:00</time>
        <ele>428.0</ele>
      </trkpt>
      <trkpt lat="49.282907" lon="12.587376">
        <time>1970-01-01T00:00:00+00:00</time>
        <ele>429.0</ele>
      </trkpt>
      <trkpt lat="49.282232" lon="12.589163">
        <time>1970-01-01T00:00:00+00:00</time>
        <ele>422.0</ele>
      </trkpt>
      <trkpt lat="49.281962" lon="12.589704">
        <time>1970-01-01T00:00:00+00:00</time>
        <ele>419.0</ele>
      </trkpt>
      <trkpt lat="49.280964" lon="12.591545">
        <time>1970-01-01T00:00:00+00:00</time>
        <ele>413.0</ele>
      </trkpt>
      <trkpt lat="49.280749" lon="12.591938">
        <time>1970-01-01T00:00:00+00:00</time>
        <ele>412.0</ele>
      </trkpt>
      <trkpt lat="49.280623" lon="12.592126">
        <time>1970-01-01T00:00:00+00:00</time>
        <ele>411.0</ele>
      </trkpt>
      <trkpt lat="49.27868" lon="12.594389">
        <time>1970-01-01T00:00:00+00:00</time>
        <ele>407.0</ele>
      </trkpt>
      <trkpt lat="49.278372" lon="12.594617">
        <time>1970-01-01T00:00:00+00:00</time>
        <ele>407.0</ele>
      </trkpt>
      <trkpt lat="49.277249" lon="12.595421">
        <time>1970-01-01T00:00:00+00:00</time>
        <ele>405.0</ele>
      </trkpt>
      <trkpt lat="49.277121" lon="12.595535">
        <time>1970-01-01T00:00:00+00:00</time>
        <ele>406.0</ele>
      </trkpt>
      <trkpt lat="49.276423" lon="12.596167">
        <time>1970-01-01T00:00:00+00:00</time>
        <ele>404.0</ele>
      </trkpt>
      <trkpt lat="49.275983" lon="12.596574">
        <time>1970-01-01T00:00:00+00:00</time>
        <ele>403.0</ele>
      </trkpt>
      <trkpt lat="49.275556" lon="12.597064">
        <time>1970-01-01T00:00:00+00:00</time>
        <ele>404.0</ele>
      </trkpt>
      <trkpt lat="49.275009" lon="12.59743">
        <time>1970-01-01T00:00:00+00:00</time>
        <ele>405.0</ele>
      </trkpt>
      <trkpt lat="49.274486" lon="12.597847">
        <time>1970-01-01T00:00:00+00:00</time>
        <ele>404.0</ele>
      </trkpt>
      <trkpt lat="49.274178" lon="12.598118">
        <time>1970-01-01T00:00:00+00:00</time>
        <ele>401.0</ele>
      </trkpt>
      <trkpt lat="49.273878" lon="12.598404">
        <time>1970-01-01T00:00:00+00:00</time>
        <ele>400.0</ele>
      </trkpt>
      <trkpt lat="49.273064" lon="12.599179">
        <time>1970-01-01T00:00:00+00:00</time>
        <ele>395.0</ele>
      </trkpt>
      <trkpt lat="49.272541" lon="12.599764">
        <time>1970-01-01T00:00:00+00:00</time>
        <ele>392.0</ele>
      </trkpt>
      <trkpt lat="49.272524" lon="12.599786">
        <time>1970-01-01T00:00:00+00:00</time>
        <ele>392.0</ele>
      </trkpt>
      <trkpt lat="49.271454" lon="12.601256">
        <time>1970-01-01T00:00:00+00:00</time>
        <ele>389.0</ele>
      </trkpt>
      <trkpt lat="49.271234" lon="12.601626">
        <time>1970-01-01T00:00:00+00:00</time>
        <ele>388.0</ele>
      </trkpt>
      <trkpt lat="49.271009" lon="12.602054">
        <time>1970-01-01T00:00:00+00:00</time>
        <ele>388.0</ele>
      </trkpt>
      <trkpt lat="49.270917" lon="12.602238">
        <time>1970-01-01T00:00:00+00:00</time>
        <ele>388.0</ele>
      </trkpt>
      <trkpt lat="49.27042" lon="12.603314">
        <time>1970-01-01T00:00:00+00:00</time>
        <ele>389.0</ele>
      </trkpt>
      <trkpt lat="49.270213" lon="12.603716">
        <time>1970-01-01T00:00:00+00:00</time>
        <ele>393.0</ele>
      </trkpt>
      <trkpt lat="49.270022" lon="12.603985">
        <time>1970-01-01T00:00:00+00:00</time>
        <ele>396.0</ele>
      </trkpt>
      <trkpt lat="49.269888" lon="12.604082">
        <time>1970-01-01T00:00:00+00:00</time>
        <ele>397.0</ele>
      </trkpt>
      <trkpt lat="49.269764" lon="12.604123">
        <time>1970-01-01T00:00:00+00:00</time>
        <ele>397.0</ele>
      </trkpt>
      <trkpt lat="49.269561" lon="12.604126">
        <time>1970-01-01T00:00:00+00:00</time>
        <ele>397.0</ele>
      </trkpt>
      <trkpt lat="49.269287" lon="12.604005">
        <time>1970-01-01T00:00:00+00:00</time>
        <ele>397.0</ele>
      </trkpt>
      <trkpt lat="49.269211" lon="12.603953">
        <time>1970-01-01T00:00:00+00:00</time>
        <ele>397.0</ele>
      </trkpt>
      <trkpt lat="49.26905" lon="12.603789">
        <time>1970-01-01T00:00:00+00:00</time>
        <ele>398.0</ele>
      </trkpt>
      <trkpt lat="49.26883" lon="12.603512">
        <time>1970-01-01T00:00:00+00:00</time>
        <ele>399.0</ele>
      </trkpt>
      <trkpt lat="49.2688" lon="12.603612">
        <time>1970-01-01T00:00:00+00:00</time>
        <ele>400.0</ele>
      </trkpt>
      <trkpt lat="49.268773" lon="12.603799">
        <time>1970-01-01T00:00:00+00:00</time>
        <ele>402.0</ele>
      </trkpt>
      <trkpt lat="49.26849" lon="12.605979">
        <time>1970-01-01T00:00:00+00:00</time>
        <ele>420.0</ele>
      </trkpt>
      <trkpt lat="49.268489" lon="12.60607">
        <time>1970-01-01T00:00:00+00:00</time>
        <ele>420.0</ele>
      </trkpt>
      <trkpt lat="49.268506" lon="12.60614">
        <time>1970-01-01T00:00:00+00:00</time>
        <ele>421.0</ele>
      </trkpt>
      <trkpt lat="49.268588" lon="12.606323">
        <time>1970-01-01T00:00:00+00:00</time>
        <ele>421.0</ele>
      </trkpt>
      <trkpt lat="49.268609" lon="12.606436">
        <time>1970-01-01T00:00:00+00:00</time>
        <ele>422.0</ele>
      </trkpt>
      <trkpt lat="49.268537" lon="12.60661">
        <time>1970-01-01T00:00:00+00:00</time>
        <ele>423.0</ele>
      </trkpt>
      <trkpt lat="49.268387" lon="12.606848">
        <time>1970-01-01T00:00:00+00:00</time>
        <ele>426.0</ele>
      </trkpt>
      <trkpt lat="49.268224" lon="12.607028">
        <time>1970-01-01T00:00:00+00:00</time>
        <ele>427.0</ele>
      </trkpt>
      <trkpt lat="49.267918" lon="12.607302">
        <time>1970-01-01T00:00:00+00:00</time>
        <ele>431.0</ele>
      </trkpt>
      <trkpt lat="49.26774" lon="12.607543">
        <time>1970-01-01T00:00:00+00:00</time>
        <ele>434.0</ele>
      </trkpt>
      <trkpt lat="49.26751" lon="12.607917">
        <time>1970-01-01T00:00:00+00:00</time>
        <ele>438.0</ele>
      </trkpt>
      <trkpt lat="49.267391" lon="12.608145">
        <time>1970-01-01T00:00:00+00:00</time>
        <ele>439.0</ele>
      </trkpt>
      <trkpt lat="49.267345" lon="12.608422">
        <time>1970-01-01T00:00:00+00:00</time>
        <ele>440.0</ele>
      </trkpt>
      <trkpt lat="49.267247" lon="12.609088">
        <time>1970-01-01T00:00:00+00:00</time>
        <ele>441.0</ele>
      </trkpt>
      <trkpt lat="49.267195" lon="12.609273">
        <time>1970-01-01T00:00:00+00:00</time>
        <ele>440.0</ele>
      </trkpt>
      <trkpt lat="49.267108" lon="12.609406">
        <time>1970-01-01T00:00:00+00:00</time>
        <ele>439.0</ele>
      </trkpt>
      <trkpt lat="49.26689" lon="12.609547">
        <time>1970-01-01T00:00:00+00:00</time>
        <ele>437.0</ele>
      </trkpt>
      <trkpt lat="49.266733" lon="12.609607">
        <time>1970-01-01T00:00:00+00:00</time>
        <ele>435.0</ele>
      </trkpt>
      <trkpt lat="49.266166" lon="12.609651">
        <time>1970-01-01T00:00:00+00:00</time>
        <ele>433.0</ele>
      </trkpt>
      <trkpt lat="49.266115" lon="12.609923">
        <time>1970-01-01T00:00:00+00:00</time>
        <ele>433.0</ele>
      </trkpt>
      <trkpt lat="49.265997" lon="12.610375">
        <time>1970-01-01T00:00:00+00:00</time>
        <ele>432.0</ele>
      </trkpt>
      <trkpt lat="49.26595" lon="12.610847">
        <time>1970-01-01T00:00:00+00:00</time>
        <ele>433.0</ele>
      </trkpt>
      <trkpt lat="49.26588" lon="12.611321">
        <time>1970-01-01T00:00:00+00:00</time>
        <ele>432.0</ele>
      </trkpt>
      <trkpt lat="49.266012" lon="12.611581">
        <time>1970-01-01T00:00:00+00:00</time>
        <ele>433.0</ele>
      </trkpt>
      <trkpt lat="49.266048" lon="12.61174">
        <time>1970-01-01T00:00:00+00:00</time>
        <ele>433.0</ele>
      </trkpt>
      <trkpt lat="49.266062" lon="12.611899">
        <time>1970-01-01T00:00:00+00:00</time>
        <ele>433.0</ele>
      </trkpt>
      <trkpt lat="49.266068" lon="12.612372">
        <time>1970-01-01T00:00:00+00:00</time>
        <ele>433.0</ele>
      </trkpt>
      <trkpt lat="49.266053" lon="12.612486">
        <time>1970-01-01T00:00:00+00:00</time>
        <ele>433.0</ele>
      </trkpt>
      <trkpt lat="49.266098" lon="12.612554">
        <time>1970-01-01T00:00:00+00:00</time>
        <ele>434.0</ele>
      </trkpt>
      <trkpt lat="49.266128" lon="12.61267">
        <time>1970-01-01T00:00:00+00:00</time>
        <ele>434.0</ele>
      </trkpt>
      <trkpt lat="49.266185" lon="12.613623">
        <time>1970-01-01T00:00:00+00:00</time>
        <ele>435.0</ele>
      </trkpt>
      <trkpt lat="49.266211" lon="12.613784">
        <time>1970-01-01T00:00:00+00:00</time>
        <ele>435.0</ele>
      </trkpt>
      <trkpt lat="49.266335" lon="12.614227">
        <time>1970-01-01T00:00:00+00:00</time>
        <ele>435.0</ele>
      </trkpt>
      <trkpt lat="49.266426" lon="12.614396">
        <time>1970-01-01T00:00:00+00:00</time>
        <ele>435.0</ele>
      </trkpt>
      <trkpt lat="49.266509" lon="12.614441">
        <time>1970-01-01T00:00:00+00:00</time>
        <ele>435.0</ele>
      </trkpt>
      <trkpt lat="49.266983" lon="12.614497">
        <time>1970-01-01T00:00:00+00:00</time>
        <ele>437.0</ele>
      </trkpt>
      <trkpt lat="49.267599" lon="12.614551">
        <time>1970-01-01T00:00:00+00:00</time>
        <ele>437.0</ele>
      </trkpt>
      <trkpt lat="49.267613" lon="12.614513">
        <time>1970-01-01T00:00:00+00:00</time>
        <ele>438.0</ele>
      </trkpt>
      <trkpt lat="49.267669" lon="12.614442">
        <time>1970-01-01T00:00:00+00:00</time>
        <ele>438.0</ele>
      </trkpt>
      <trkpt lat="49.267796" lon="12.614362">
        <time>1970-01-01T00:00:00+00:00</time>
        <ele>438.0</ele>
      </trkpt>
      <trkpt lat="49.267926" lon="12.614324">
        <time>1970-01-01T00:00:00+00:00</time>
        <ele>439.0</ele>
      </trkpt>
      <trkpt lat="49.268156" lon="12.614301">
        <time>1970-01-01T00:00:00+00:00</time>
        <ele>440.0</ele>
      </trkpt>
    </trkseg>
  </trk>
</gpx>
